Location: Te Maire Creek
(41.1333°S, 175.9167°E)
Time: 00:30:14
(UTC+00:00)

USA 59 Rocket - Pass Details

Date: 19 May 2024
Orbit: 383 x 1743 km, 63.3° (Epoch: 18 June)

Event Time Altitude Azimuth Distance (km) Brightness Sun altitude
Exits shadow 15:50:51 74° 163° (SSE) 1,780 2.1 -39.5°
Drops below altitude 10° 16:00:31 10° 145° (SE) 4,057 4.6 -37.7°
Sets 16:03:43 0° 144° (SE) 4,997 5.2 -37.1°
